Terug naar catalogus

SL-16 DEB

LostVLEO
NORAD 39848·DEBRIS·🇷🇺 Russia

Gelanceerd Dec 25, 1992 vanaf Baikonur Cosmodrome

Loading…

Volgende Passages (komende 24 uur)

TLE

VerouderdSource: Space-Track

Epoch: Jun 29, 2026, 22:02 UTC

1 39848U 92093LA  26180.91843945  .00058804  00000-0  38309-2 0  9995
2 39848  71.2098  50.8224 0027435 173.8939 186.2574 15.07300485627048

Volg SL-16 DEB in realtime met AllMySat

Download on the App Store